Погода в Солодушине

Россия / Волгоградская область     49°57′30″N   45°25′21″E
темп.,
°C
ветер,
м/с
пор.,
м/с
влажн.,
%
обл.,
%
осадки,
мм/ч
давл.,
гПа
погр.,
м
7 марта, вс
вс700:00−4ссз2394100 0.1 1014174
03:00−5сз51090100 0.4 1015517
06:00−9зсз7128964 0.0 1017336
09:00−8зсз7118232 0.0 1019388
12:00−4з69700 0.0 1019944
15:00−2зюз6106931 0.0 10171395
18:00−3юз61378100 0.0 1015479
21:00−3юз7167599 0.0 1013762
8 марта, пн
пн800:00−3юз81775100 0.0 1011827
03:00−3юз9177782 0.0 1010752
06:00−3зюз816829 0.0 1009632
09:00−1зюз914798 0.0 1009827
12:00+1зюз9147787 0.0 10091158
15:00+2зюз8147694 0.1 10091342
18:000юз61383100 0.0 1009417
21:00−1юз5128594 0.0 1010353
9 марта, вт
вт900:00−2зсз229261 0.1 101060
03:00−3з118380 0.1 101121
06:00−3св2297100 0.3 101081
09:00−3ссв4696100 2.5 1010281
12:00−2ссв5694100 1.7 1010365
15:00−2ссз4685100 2.3 1010735
18:00−5сз238836 0.1 101235
21:00−7сз379142 0.1 1014191
10 марта, ср
ср1000:00−8сз5108890 0.0 1015418
03:00−10сз6118845 0.0 1017428
06:00−13сз7128612 0.0 1020461
09:00−12сз711826 0.0 1022584
12:00−11сз79760 0.0 1023798
15:00−11сз7107315 0.0 1024808
18:00−13сз510800 0.0 1024570
21:00−15ссз49860 0.0 1025529
11 марта, чт
чт1100:00−16ссз47830 0.0 1026371
03:00−18с46830 0.0 1028326
06:00−19с35840 0.0 1029263
09:00−18с45760 0.0 1030384
12:00−15ссв34660 0.0 1031596
15:00−13ссв34630 0.0 1031795
18:00−15с34830 0.0 1032120
21:00−17ссз22840 0.0 103459